VLG8DY LEPA-GMMN

Flight info

Callsign VLG8DY
Flight time N/A
Altitude 35000
Route EPAMA DCT IXUPA N733 VLC/N0454F370 M985 PIMOS N869 GALTO UB11 TUSOR
Aircraft A321/M-SDE3FGHIRWY/LB1

Departure

Time 2026-05-07 20:29
Airport Palma de Mallorca Airport (LEPA)

Arrival

Time N/A
Airport Mohammed V International Airport (GMMN)
Time Latitude Longitude Altitude Speed Heading
2026-05-07 19:56 39.55004 2.73443 30 ft 0 kts 165°
2026-05-07 20:15 39.55022 2.73436 30 ft 4 kts 149°
2026-05-07 20:16 39.55039 2.73415 30 ft 4 kts 101°
2026-05-07 20:16 39.55037 2.73390 30 ft 1 kts 58°
2026-05-07 20:20 39.55037 2.73391 30 ft 0 kts 58°
2026-05-07 20:20 39.55038 2.73391 30 ft 0 kts 58°
2026-05-07 20:20 39.55046 2.73409 30 ft 6 kts 58°
2026-05-07 20:20 39.55085 2.73489 30 ft 13 kts 58°
2026-05-07 20:21 39.55132 2.73587 30 ft 13 kts 58°
2026-05-07 20:21 39.55179 2.73690 30 ft 13 kts 68°
2026-05-07 20:21 39.55132 2.73778 30 ft 13 kts 149°
2026-05-07 20:21 39.55052 2.73842 30 ft 14 kts 148°
2026-05-07 20:22 39.54969 2.73908 30 ft 14 kts 148°
2026-05-07 20:22 39.54884 2.73976 30 ft 15 kts 148°
2026-05-07 20:22 39.54795 2.73965 30 ft 14 kts 220°
2026-05-07 20:22 39.54703 2.73923 30 ft 14 kts 214°
2026-05-07 20:23 39.54645 2.73820 30 ft 14 kts 238°
2026-05-07 20:23 39.54592 2.73708 30 ft 15 kts 238°
2026-05-07 20:23 39.54539 2.73594 30 ft 15 kts 239°
2026-05-07 20:23 39.54485 2.73480 30 ft 15 kts 238°
2026-05-07 20:24 39.54429 2.73363 30 ft 15 kts 238°
2026-05-07 20:24 39.54373 2.73245 30 ft 15 kts 239°
2026-05-07 20:24 39.54316 2.73126 30 ft 16 kts 237°
2026-05-07 20:24 39.54261 2.73006 30 ft 16 kts 239°
2026-05-07 20:25 39.54202 2.72923 30 ft 8 kts 192°
2026-05-07 20:25 39.54161 2.72961 30 ft 8 kts 117°
2026-05-07 20:25 39.54158 2.72996 30 ft 0 kts 94°
2026-05-07 20:26 39.54158 2.72997 30 ft 0 kts 94°
2026-05-07 20:27 39.54156 2.73023 30 ft 4 kts 94°
2026-05-07 20:27 39.54154 2.73065 30 ft 5 kts 94°
2026-05-07 20:27 39.54152 2.73113 30 ft 6 kts 94°
2026-05-07 20:27 39.54149 2.73167 30 ft 6 kts 94°
2026-05-07 20:28 39.54151 2.73224 30 ft 6 kts 69°
2026-05-07 20:28 39.54176 2.73276 30 ft 8 kts 59°
2026-05-07 20:28 39.54300 2.73538 30 ft 71 kts 58°
2026-05-07 20:28 39.54683 2.74343 31 ft 136 kts 58°
2026-05-07 20:29 39.55243 2.75526 362 ft 157 kts 57°
2026-05-07 20:29 39.55795 2.76730 1159 ft 155 kts 59°
2026-05-07 20:29 39.56362 2.77973 1628 ft 168 kts 59°
2026-05-07 20:29 39.56986 2.79354 1895 ft 190 kts 60°
2026-05-07 20:30 39.57681 2.80910 2233 ft 204 kts 60°
2026-05-07 20:30 39.58415 2.82534 2708 ft 214 kts 60°
2026-05-07 20:30 39.59159 2.84158 3530 ft 210 kts 60°
2026-05-07 20:30 39.59914 2.85803 4201 ft 213 kts 59°
2026-05-07 20:31 39.60679 2.87468 4886 ft 217 kts 59°
2026-05-07 20:31 39.61453 2.89153 5528 ft 219 kts 58°
2026-05-07 20:31 39.62450 2.90647 6158 ft 223 kts 34°
2026-05-07 20:31 39.63937 2.91187 6780 ft 229 kts 359°
2026-05-07 20:32 39.65451 2.90530 7387 ft 237 kts 326°
2026-05-07 20:32 39.66467 2.88851 8021 ft 242 kts 295°
2026-05-07 20:32 39.67084 2.86807 8674 ft 244 kts 291°
2026-05-07 20:32 39.67599 2.84688 9303 ft 248 kts 287°
2026-05-07 20:33 39.68005 2.82505 9924 ft 250 kts 283°
2026-05-07 20:33 39.68303 2.80264 10474 ft 253 kts 279°
2026-05-07 20:33 39.68485 2.77983 11023 ft 256 kts 274°
2026-05-07 20:33 39.68649 2.75676 11575 ft 258 kts 279°
2026-05-07 20:34 39.68862 2.73304 11888 ft 276 kts 271°
2026-05-07 20:34 39.68805 2.70712 12101 ft 299 kts 266°
2026-05-07 20:34 39.68634 2.67924 12297 ft 322 kts 264°
2026-05-07 20:34 39.68411 2.64923 12468 ft 345 kts 264°
2026-05-07 20:35 39.68171 2.61720 12642 ft 366 kts 264°
2026-05-07 20:35 39.67937 2.58382 13151 ft 374 kts 265°
2026-05-07 20:35 39.67718 2.54994 13802 ft 379 kts 265°
2026-05-07 20:35 39.67493 2.51573 14408 ft 382 kts 261°
2026-05-07 20:36 39.66767 2.48263 15008 ft 383 kts 244°
2026-05-07 20:36 39.65633 2.45176 15662 ft 384 kts 243°
2026-05-07 20:36 39.64463 2.42043 16332 ft 386 kts 243°
2026-05-07 20:36 39.63286 2.38902 16992 ft 389 kts 243°
2026-05-07 20:37 39.62097 2.35736 17638 ft 391 kts 243°
2026-05-07 20:37 39.60902 2.32553 18259 ft 394 kts 243°
2026-05-07 20:37 39.59699 2.29347 18797 ft 397 kts 243°
2026-05-07 20:37 39.58491 2.26121 19373 ft 399 kts 243°
2026-05-07 20:38 39.57690 2.23978 19743 ft 400 kts 243°
2026-05-07 20:38 39.56473 2.20726 20308 ft 402 kts 243°
2026-05-07 20:38 39.55248 2.17457 20841 ft 404 kts 242°
2026-05-07 20:38 39.54018 2.14177 21380 ft 406 kts 242°
2026-05-07 20:39 39.52778 2.10882 21891 ft 408 kts 242°
2026-05-07 20:39 39.51530 2.07570 22402 ft 410 kts 242°
2026-05-07 20:39 39.50276 2.04243 22885 ft 412 kts 242°
2026-05-07 20:39 39.49013 2.00894 23370 ft 415 kts 242°
2026-05-07 20:40 39.47741 1.97532 23781 ft 417 kts 242°
2026-05-07 20:40 39.46458 1.94149 24176 ft 420 kts 242°
2026-05-07 20:40 39.45168 1.90749 24571 ft 422 kts 242°
2026-05-07 20:40 39.43871 1.87332 24968 ft 424 kts 242°
2026-05-07 20:41 39.42570 1.83908 25372 ft 426 kts 243°
2026-05-07 20:41 39.41261 1.80463 25762 ft 427 kts 243°
2026-05-07 20:41 39.39946 1.77005 26167 ft 429 kts 243°
2026-05-07 20:41 39.38626 1.73539 26566 ft 430 kts 243°
2026-05-07 20:42 39.37303 1.70067 26966 ft 432 kts 243°
2026-05-07 20:42 39.35991 1.66631 27358 ft 433 kts 243°
2026-05-07 20:42 39.34657 1.63140 27762 ft 434 kts 243°
2026-05-07 20:42 39.33321 1.59643 28162 ft 434 kts 244°
2026-05-07 20:43 39.31982 1.56148 28582 ft 435 kts 244°
2026-05-07 20:43 39.30637 1.52642 29011 ft 435 kts 244°
2026-05-07 20:43 39.29293 1.49140 29433 ft 435 kts 245°
2026-05-07 20:43 39.27952 1.45651 30014 ft 431 kts 245°
2026-05-07 20:44 39.26626 1.42205 30522 ft 427 kts 246°
2026-05-07 20:44 39.25309 1.38788 31036 ft 423 kts 246°
2026-05-07 20:44 39.24005 1.35409 31531 ft 419 kts 247°
2026-05-07 20:44 39.22708 1.32059 32019 ft 415 kts 248°
2026-05-07 20:45 39.21423 1.28744 32500 ft 412 kts 248°
2026-05-07 20:45 39.20147 1.25456 32971 ft 409 kts 248°
2026-05-07 20:45 39.18880 1.22189 33422 ft 406 kts 249°
2026-05-07 20:45 39.17620 1.18944 33861 ft 403 kts 249°
2026-05-07 20:46 39.16369 1.15722 34235 ft 401 kts 249°
2026-05-07 20:46 39.15140 1.12550 34556 ft 400 kts 249°
2026-05-07 20:46 39.13895 1.09343 34843 ft 400 kts 249°
2026-05-07 20:46 39.12648 1.06136 34944 ft 400 kts 249°
2026-05-07 20:47 39.11403 1.02941 34964 ft 399 kts 249°
2026-05-07 20:47 39.08909 0.96569 34969 ft 398 kts 249°
2026-05-07 20:48 39.06422 0.90211 34969 ft 398 kts 249°
2026-05-07 20:48 39.03932 0.83862 34971 ft 397 kts 249°
2026-05-07 20:49 39.01439 0.77533 34969 ft 396 kts 249°
2026-05-07 20:49 38.98945 0.71213 34976 ft 396 kts 249°
2026-05-07 20:50 38.96456 0.64901 34984 ft 396 kts 249°
2026-05-07 20:50 38.93990 0.58645 35002 ft 395 kts 249°
2026-05-07 20:51 38.91499 0.52363 34998 ft 394 kts 249°
2026-05-07 20:51 38.89015 0.46106 35002 ft 393 kts 249°
2026-05-07 20:52 38.86538 0.39873 35001 ft 392 kts 249°
2026-05-07 20:52 38.84059 0.33661 35000 ft 391 kts 249°
2026-05-07 20:53 38.81582 0.27466 35005 ft 390 kts 249°
2026-05-07 20:53 38.79103 0.21298 35004 ft 389 kts 249°
2026-05-07 20:54 38.76634 0.15144 35003 ft 388 kts 249°
2026-05-07 20:54 38.74170 0.09009 35005 ft 387 kts 249°
2026-05-07 20:55 38.71704 0.02888 35006 ft 386 kts 249°
2026-05-07 20:55 38.69259 -0.03181 35002 ft 386 kts 249°
2026-05-07 20:56 38.66797 -0.09290 35000 ft 386 kts 249°
2026-05-07 20:56 38.64323 -0.15378 35001 ft 385 kts 249°
2026-05-07 20:57 38.61854 -0.21450 34995 ft 385 kts 249°
2026-05-07 20:57 38.59386 -0.27519 34997 ft 385 kts 249°
2026-05-07 20:58 38.56913 -0.33589 34996 ft 385 kts 249°
2026-05-07 20:58 38.54437 -0.39653 34992 ft 385 kts 248°
2026-05-07 20:59 38.51954 -0.45720 35006 ft 385 kts 248°
2026-05-07 20:59 38.49475 -0.51778 35006 ft 385 kts 248°
2026-05-07 21:00 38.46988 -0.57836 35012 ft 385 kts 248°
2026-05-07 21:00 38.44493 -0.63883 35010 ft 385 kts 248°
2026-05-07 21:01 38.41996 -0.69925 35002 ft 385 kts 248°
2026-05-07 21:01 38.39515 -0.75934 35021 ft 385 kts 248°
2026-05-07 21:02 38.37020 -0.81975 35013 ft 385 kts 248°
2026-05-07 21:02 38.34520 -0.88011 35015 ft 385 kts 248°
2026-05-07 21:03 38.32010 -0.94038 35014 ft 385 kts 248°
2026-05-07 21:03 38.29500 -1.00065 35016 ft 385 kts 247°
2026-05-07 21:04 38.26984 -1.06086 35007 ft 385 kts 247°
2026-05-07 21:04 38.24474 -1.12098 35009 ft 385 kts 247°
2026-05-07 21:05 38.21957 -1.18119 35001 ft 386 kts 247°
2026-05-07 21:05 38.19431 -1.24134 35001 ft 386 kts 247°
2026-05-07 21:06 38.16904 -1.30155 35006 ft 386 kts 247°
2026-05-07 21:06 38.14367 -1.36175 35008 ft 387 kts 246°
2026-05-07 21:07 38.11819 -1.42196 35014 ft 387 kts 246°
2026-05-07 21:07 38.09269 -1.48215 35021 ft 387 kts 246°
2026-05-07 21:08 38.06722 -1.54228 35020 ft 387 kts 246°
2026-05-07 21:08 38.04186 -1.60202 35023 ft 387 kts 246°
2026-05-07 21:09 38.01636 -1.66215 35022 ft 387 kts 246°
2026-05-07 21:09 37.99083 -1.72209 35026 ft 387 kts 246°
2026-05-07 21:10 37.96520 -1.78209 35019 ft 387 kts 246°
2026-05-07 21:10 37.93965 -1.84200 35021 ft 387 kts 246°
2026-05-07 21:11 37.91402 -1.90188 35020 ft 387 kts 246°
2026-05-07 21:11 37.87542 -1.99165 35027 ft 387 kts 246°
2026-05-07 21:12 37.85402 -2.04143 35026 ft 387 kts 246°